When you browse on this site, cookies collect data to enhance your experience and personalize the content and advertising you see.
Visit our Privacy Policy to learn more. By continuing to use the site, you agree to this use of cookies and data.
  • In Deutschland
  • Länderverzeichnis
  • Für 7 Tage
  • Wassertemperatur
  • Satellitenkarten
  • Wetterkarte
  • Widgets
  • user-avatar
    Anmelden

    Stündliche Wetter Daliang

    Heute, 20 Januar, Sonntag

    Zeit Temperatur Niederschläge Wind Luftdruck Luftfeuchtigkeit
    00:00 +24°C° 0 mm 1 m/S 764 mmHg 59%
    01:00 +23°C° 0 mm 1 m/S 764 mmHg 60%
    02:00 +21°C° 0 mm 0 m/S 764 mmHg 66%
    03:00 +23°C° 0 mm 1 m/S 764 mmHg 66%
    04:00 +23°C° 0 mm 1 m/S 764 mmHg 67%
    05:00 +23°C° 0 mm 1 m/S 764 mmHg 67%
    06:00 +23°C° 0 mm 1 m/S 764 mmHg 67%
    07:00 +23°C° 0 mm 2 m/S 764 mmHg 66%
    08:00 +22°C° 0 mm 1 m/S 764 mmHg 66%
    09:00 +23°C° 0.1 mm 1 m/S 764 mmHg 63%
    10:00 +24°C° 0.1 mm 2 m/S 764 mmHg 60%
    11:00 +25°C° 0.1 mm 2 m/S 765 mmHg 57%
    12:00 +26°C° 0 mm 2 m/S 764 mmHg 54%
    13:00 +27°C° 0 mm 2 m/S 764 mmHg 51%
    14:00 +28°C° 0 mm 3 m/S 763 mmHg 47%
    15:00 +27°C° 0 mm 3 m/S 763 mmHg 48%
    16:00 +27°C° 0 mm 4 m/S 763 mmHg 49%
    17:00 +27°C° 0 mm 5 m/S 763 mmHg 50%
    18:00 +24°C° 0 mm 6 m/S 764 mmHg 51%
    19:00 +23°C° 0 mm 6 m/S 764 mmHg 52%
    20:00 +22°C° 0 mm 6 m/S 764 mmHg 53%
    21:00 +21°C° 0 mm 6 m/S 765 mmHg 53%
    22:00 +20°C° 0 mm 6 m/S 765 mmHg 54%
    23:00 +20°C° 0 mm 5 m/S 766 mmHg 54%

    Morgen, 21 Januar, Montag

    Zeit Temperatur Niederschläge Wind Luftdruck Luftfeuchtigkeit
    00:00 +19°C° 0 mm 5 m/S 766 mmHg 54%
    01:00 +19°C° 0 mm 5 m/S 766 mmHg 54%
    02:00 +17°C° 0 mm 5 m/S 766 mmHg 54%
    03:00 +17°C° 0 mm 5 m/S 766 mmHg 54%
    04:00 +16°C° 0 mm 5 m/S 766 mmHg 54%
    05:00 +16°C° 0 mm 6 m/S 766 mmHg 54%
    06:00 +15°C° 0 mm 5 m/S 767 mmHg 55%
    07:00 +15°C° 0 mm 5 m/S 767 mmHg 56%
    08:00 +15°C° 0 mm 5 m/S 768 mmHg 58%
    09:00 +15°C° 0 mm 5 m/S 768 mmHg 58%
    10:00 +14°C° 0 mm 5 m/S 768 mmHg 59%
    11:00 +14°C° 0 mm 4 m/S 768 mmHg 60%
    12:00 +15°C° 0 mm 4 m/S 767 mmHg 56%
    13:00 +17°C° 0 mm 4 m/S 767 mmHg 53%
    14:00 +17°C° 0 mm 4 m/S 766 mmHg 50%
    15:00 +19°C° 0 mm 4 m/S 766 mmHg 47%
    16:00 +20°C° 0 mm 4 m/S 765 mmHg 44%
    17:00 +21°C° 0 mm 4 m/S 765 mmHg 41%
    18:00 +20°C° 0 mm 4 m/S 766 mmHg 43%
    19:00 +20°C° 0 mm 4 m/S 766 mmHg 44%
    20:00 +19°C° 0 mm 4 m/S 766 mmHg 45%
    21:00 +19°C° 0 mm 3 m/S 767 mmHg 45%
    22:00 +19°C° 0 mm 3 m/S 767 mmHg 45%
    23:00 +18°C° 0 mm 3 m/S 767 mmHg 45%

    übermorgen, 22 Januar, Dienstag

    Zeit Temperatur Niederschläge Wind Luftdruck Luftfeuchtigkeit
    00:00 +18°C° 0 mm 3 m/S 767 mmHg 45%
    01:00 +18°C° 0 mm 3 m/S 767 mmHg 45%
    02:00 +17°C° 0 mm 3 m/S 767 mmHg 45%
    03:00 +17°C° 0 mm 3 m/S 767 mmHg 46%
    04:00 +16°C° 0 mm 3 m/S 766 mmHg 46%
    05:00 +16°C° 0 mm 3 m/S 766 mmHg 47%
    06:00 +16°C° 0 mm 3 m/S 767 mmHg 47%
    07:00 +14°C° 0 mm 3 m/S 767 mmHg 48%
    08:00 +14°C° 0 mm 3 m/S 767 mmHg 48%
    09:00 +16°C° 0 mm 3 m/S 768 mmHg 45%
    10:00 +17°C° 0 mm 3 m/S 768 mmHg 41%
    11:00 +18°C° 0 mm 3 m/S 768 mmHg 38%
    12:00 +19°C° 0 mm 3 m/S 767 mmHg 35%
    13:00 +20°C° 0 mm 3 m/S 766 mmHg 32%
    14:00 +21°C° 0 mm 3 m/S 765 mmHg 30%
    15:00 +22°C° 0 mm 3 m/S 765 mmHg 29%
    16:00 +22°C° 0 mm 3 m/S 765 mmHg 29%
    17:00 +22°C° 0 mm 3 m/S 764 mmHg 29%
    18:00 +22°C° 0 mm 3 m/S 765 mmHg 30%
    19:00 +22°C° 0 mm 3 m/S 765 mmHg 31%
    20:00 +21°C° 0 mm 3 m/S 765 mmHg 32%
    21:00 +21°C° 0 mm 3 m/S 766 mmHg 33%
    22:00 +20°C° 0 mm 3 m/S 766 mmHg 34%
    23:00 +20°C° 0 mm 2 m/S 766 mmHg 34%

    23 Januar, Mittwoch

    Zeit Temperatur Niederschläge Wind Luftdruck Luftfeuchtigkeit
    00:00 +19°C° 0 mm 2 m/S 766 mmHg 35%
    01:00 +19°C° 0 mm 2 m/S 766 mmHg 36%
    02:00 +18°C° 0 mm 2 m/S 766 mmHg 37%
    03:00 +18°C° 0 mm 2 m/S 766 mmHg 37%
    04:00 +18°C° 0 mm 2 m/S 765 mmHg 38%
    05:00 +17°C° 0 mm 2 m/S 765 mmHg 39%
    06:00 +17°C° 0 mm 2 m/S 766 mmHg 39%
    07:00 +17°C° 0 mm 2 m/S 766 mmHg 39%
    08:00 +16°C° 0 mm 2 m/S 767 mmHg 39%
    09:00 +17°C° 0 mm 2 m/S 767 mmHg 35%
    10:00 +19°C° 0 mm 2 m/S 767 mmHg 31%
    11:00 +20°C° 0 mm 2 m/S 767 mmHg 26%
    12:00 +21°C° 0 mm 2 m/S 766 mmHg 24%
    13:00 +23°C° 0 mm 2 m/S 765 mmHg 21%
    14:00 +24°C° 0 mm 2 m/S 765 mmHg 19%
    15:00 +24°C° 0 mm 2 m/S 764 mmHg 19%
    16:00 +24°C° 0 mm 2 m/S 764 mmHg 19%
    17:00 +25°C° 0 mm 2 m/S 764 mmHg 18%
    18:00 +24°C° 0 mm 1 m/S 764 mmHg 19%
    19:00 +24°C° 0 mm 1 m/S 764 mmHg 20%
    20:00 +24°C° 0 mm 1 m/S 765 mmHg 20%
    21:00 +23°C° 0 mm 1 m/S 765 mmHg 23%
    22:00 +22°C° 0 mm 1 m/S 765 mmHg 26%
    23:00 +21°C° 0 mm 2 m/S 765 mmHg 29%

    24 Januar, Donnerstag

    Zeit Temperatur Niederschläge Wind Luftdruck Luftfeuchtigkeit
    00:00 +21°C° 0 mm 1 m/S 765 mmHg 33%
    01:00 +21°C° 0 mm 1 m/S 765 mmHg 37%
    02:00 +20°C° 0 mm 1 m/S 765 mmHg 42%
    03:00 +20°C° 0 mm 1 m/S 765 mmHg 45%
    04:00 +20°C° 0 mm 1 m/S 765 mmHg 48%
    05:00 +19°C° 0 mm 1 m/S 765 mmHg 52%
    06:00 +19°C° 0 mm 1 m/S 765 mmHg 52%
    07:00 +19°C° 0 mm 1 m/S 766 mmHg 52%
    08:00 +18°C° 0 mm 2 m/S 766 mmHg 52%
    09:00 +19°C° 0 mm 2 m/S 766 mmHg 50%
    10:00 +20°C° 0 mm 2 m/S 767 mmHg 48%
    11:00 +21°C° 0 mm 2 m/S 767 mmHg 46%
    12:00 +23°C° 0 mm 2 m/S 766 mmHg 42%
    13:00 +24°C° 0 mm 2 m/S 765 mmHg 38%
    14:00 +24°C° 0 mm 2 m/S 765 mmHg 34%
    15:00 +25°C° 0 mm 2 m/S 764 mmHg 34%
    16:00 +25°C° 0 mm 2 m/S 764 mmHg 33%
    17:00 +25°C° 0 mm 3 m/S 764 mmHg 33%
    18:00 +24°C° 0 mm 3 m/S 764 mmHg 37%
    19:00 +22°C° 0 mm 3 m/S 764 mmHg 41%
    20:00 +22°C° 0 mm 4 m/S 765 mmHg 45%
    21:00 +21°C° 0 mm 3 m/S 765 mmHg 49%
    22:00 +21°C° 0 mm 3 m/S 765 mmHg 52%
    23:00 +20°C° 0 mm 3 m/S 766 mmHg 56%

    25 Januar, Freitag

    Zeit Temperatur Niederschläge Wind Luftdruck Luftfeuchtigkeit
    00:00 +20°C° 0 mm 2 m/S 765 mmHg 57%
    01:00 +20°C° 0 mm 2 m/S 765 mmHg 58%
    02:00 +20°C° 0 mm 1 m/S 765 mmHg 60%
    03:00 +20°C° 0 mm 1 m/S 765 mmHg 61%
    04:00 +18°C° 0 mm 0 m/S 765 mmHg 61%
    05:00 +18°C° 0 mm 0 m/S 765 mmHg 62%
    06:00 +18°C° 0 mm 0 m/S 766 mmHg 62%
    07:00 +20°C° 0 mm 1 m/S 766 mmHg 61%
    08:00 +20°C° 0 mm 1 m/S 767 mmHg 61%
    09:00 +21°C° 0 mm 1 m/S 767 mmHg 55%
    10:00 +22°C° 0 mm 1 m/S 767 mmHg 49%
    11:00 +23°C° 0 mm 1 m/S 767 mmHg 44%
    12:00 +24°C° 0 mm 1 m/S 767 mmHg 40%
    13:00 +25°C° 0 mm 1 m/S 766 mmHg 36%
    14:00 +26°C° 0 mm 2 m/S 765 mmHg 33%
    15:00 +26°C° 0 mm 2 m/S 765 mmHg 32%
    16:00 +26°C° 0 mm 2 m/S 765 mmHg 32%
    17:00 +26°C° 0 mm 2 m/S 764 mmHg 31%
    18:00 +26°C° 0 mm 1 m/S 765 mmHg 32%
    19:00 +26°C° 0 mm 1 m/S 765 mmHg 33%
    20:00 +26°C° 0 mm 1 m/S 766 mmHg 33%
    21:00 +25°C° 0 mm 1 m/S 766 mmHg 36%
    22:00 +25°C° 0 mm 1 m/S 766 mmHg 38%
    23:00 +24°C° 0 mm 1 m/S 767 mmHg 40%
    Mehr zeigen